Time,TemperatureF,DewpointF,PressureIn,WindDirection,WindDirectionDegrees,WindSpeedMPH,WindSpeedGustMPH,Humidity,HourlyPrecipIn,Conditions,Clouds,dailyrainin,SolarRadiationWatts/m^2,SoftwareType,DateUTC
2013-01-29 00:00:00,40.5,39.7,29.56,WNW,286,0.0,0.0,97,0.00,,,0.01,0,Wunderground v.1.15,2013-01-29 06:00:00,
2013-01-29 00:10:00,40.6,39.8,29.55,WNW,286,0.0,0.0,97,0.00,,,0.00,0,Wunderground v.1.15,2013-01-29 06:10:00,
2013-01-29 00:20:00,40.6,39.8,29.55,WNW,286,0.0,0.0,97,0.00,,,0.00,0,Wunderground v.1.15,2013-01-29 06:20:00,
2013-01-29 00:30:00,40.1,39.3,29.55,WNW,286,0.0,0.0,97,0.00,,,0.00,0,Wunderground v.1.15,2013-01-29 06:30:00,
2013-01-29 00:40:00,40.3,39.5,29.58,WNW,284,0.0,0.0,97,0.00,,,0.00,0,Wunderground v.1.15,2013-01-29 06:40:00,
2013-01-29 00:50:00,40.8,40.0,29.58,WSW,258,0.0,3.0,97,0.00,,,0.00,0,Wunderground v.1.15,2013-01-29 06:50:00,
2013-01-29 01:00:00,40.9,40.1,29.58,WNW,300,2.0,5.0,97,0.00,,,0.00,0,Wunderground v.1.15,2013-01-29 07:00:00,
2013-01-29 01:10:00,40.8,40.0,29.58,WNW,283,0.0,0.0,97,0.00,,,0.00,0,Wunderground v.1.15,2013-01-29 07:10:00,
2013-01-29 01:20:00,40.3,39.5,29.58,WNW,294,2.0,2.0,97,0.00,,,0.00,0,Wunderground v.1.15,2013-01-29 07:20:00,
2013-01-29 01:30:00,39.9,39.1,29.59,NW,308,2.0,3.0,97,0.00,,,0.00,0,Wunderground v.1.15,2013-01-29 07:30:00,
2013-01-29 01:40:00,39.8,39.0,29.59,WNW,294,4.0,9.0,97,0.00,,,0.00,0,Wunderground v.1.15,2013-01-29 07:40:00,
2013-01-29 01:50:00,39.6,38.8,29.59,WNW,294,4.0,4.0,97,0.00,,,0.00,0,Wunderground v.1.15,2013-01-29 07:50:00,
2013-01-29 02:00:00,39.2,38.4,29.60,NW,308,6.0,12.0,97,0.00,,,0.00,0,Wunderground v.1.15,2013-01-29 08:00:00,
2013-01-29 02:10:00,38.5,37.7,29.61,WNW,302,7.0,10.0,97,0.00,,,0.00,0,Wunderground v.1.15,2013-01-29 08:10:00,
2013-01-29 02:20:00,37.8,37.0,29.61,NNW,333,8.0,8.0,97,0.00,,,0.00,0,Wunderground v.1.15,2013-01-29 08:20:00,
2013-01-29 02:30:00,37.3,36.5,29.61,NW,308,4.0,6.0,97,0.00,,,0.00,0,Wunderground v.1.15,2013-01-29 08:30:00,
2013-01-29 02:40:00,36.9,36.1,29.63,NNW,333,6.0,6.0,97,0.00,,,0.00,0,Wunderground v.1.15,2013-01-29 08:40:00,
2013-01-29 02:50:00,36.5,35.7,29.63,WNW,284,8.0,8.0,97,0.00,,,0.00,0,Wunderground v.1.15,2013-01-29 08:50:00,
2013-01-29 03:00:00,36.2,35.4,29.64,West,276,3.0,3.0,97,0.00,,,0.00,0,Wunderground v.1.15,2013-01-29 09:00:00,
2013-01-29 03:10:00,35.9,35.1,29.64,NW,309,6.0,6.0,97,0.00,,,0.00,0,Wunderground v.1.15,2013-01-29 09:10:00,
2013-01-29 03:20:00,35.6,34.8,29.64,NNW,327,2.0,2.0,97,0.00,,,0.00,0,Wunderground v.1.15,2013-01-29 09:20:00,
2013-01-29 03:30:00,35.5,34.7,29.64,NW,307,2.0,9.0,97,0.00,,,0.00,0,Wunderground v.1.15,2013-01-29 09:30:00,
2013-01-29 03:40:00,35.5,34.7,29.64,NW,306,4.0,4.0,97,0.00,,,0.00,0,Wunderground v.1.15,2013-01-29 09:40:00,
2013-01-29 03:50:00,35.3,34.5,29.64,NNW,338,4.0,4.0,97,0.00,,,0.00,0,Wunderground v.1.15,2013-01-29 09:50:00,
2013-01-29 04:00:00,35.2,34.4,29.63,WNW,286,2.0,2.0,97,0.00,,,0.00,0,Wunderground v.1.15,2013-01-29 10:00:00,
2013-01-29 04:10:00,35.2,34.4,29.65,WNW,293,1.0,1.0,97,0.00,,,0.00,0,Wunderground v.1.15,2013-01-29 10:10:00,
2013-01-29 04:20:00,35.0,34.2,29.65,WNW,294,1.0,2.0,97,0.00,,,0.00,0,Wunderground v.1.15,2013-01-29 10:20:00,
2013-01-29 04:30:00,34.9,34.1,29.65,WNW,302,1.0,1.0,97,0.00,,,0.00,0,Wunderground v.1.15,2013-01-29 10:30:00,
2013-01-29 04:40:00,34.6,33.8,29.65,West,275,0.0,0.0,97,0.00,,,0.00,0,Wunderground v.1.15,2013-01-29 10:40:00,
2013-01-29 04:50:00,34.1,33.3,29.65,WNW,289,0.0,0.0,97,0.00,,,0.00,0,Wunderground v.1.15,2013-01-29 10:50:00,
2013-01-29 05:00:00,34.0,33.2,29.66,WNW,300,3.0,3.0,97,0.00,,,0.00,0,Wunderground v.1.15,2013-01-29 11:00:00,
2013-01-29 05:10:00,33.7,32.9,29.66,WNW,287,4.0,6.0,97,0.00,,,0.00,0,Wunderground v.1.15,2013-01-29 11:10:00,
2013-01-29 05:20:00,33.4,32.4,29.66,WNW,289,7.0,7.0,96,0.00,,,0.00,0,Wunderground v.1.15,2013-01-29 11:20:00,
2013-01-29 05:30:00,33.4,32.4,29.65,NNW,331,3.0,3.0,96,0.00,,,0.00,0,Wunderground v.1.15,2013-01-29 11:30:00,
2013-01-29 05:40:00,33.4,32.4,29.65,NW,309,1.0,4.0,96,0.00,,,0.00,0,Wunderground v.1.15,2013-01-29 11:40:00,
2013-01-29 05:50:00,33.4,32.4,29.65,NNW,331,0.0,0.0,96,0.00,,,0.00,0,Wunderground v.1.15,2013-01-29 11:50:00,
2013-01-29 06:00:00,33.2,32.2,29.66,NNW,328,0.0,0.0,96,0.00,,,0.00,0,Wunderground v.1.15,2013-01-29 12:00:00,
2013-01-29 06:10:00,33.1,32.1,29.63,NW,318,1.0,1.0,96,0.00,,,0.00,0,Wunderground v.1.15,2013-01-29 12:10:00,
2013-01-29 06:20:00,33.1,32.1,29.63,WNW,292,0.0,0.0,96,0.00,,,0.00,0,Wunderground v.1.15,2013-01-29 12:20:00,
2013-01-29 06:30:00,33.1,32.1,29.65,WNW,301,0.0,0.0,96,0.00,,,0.00,0,Wunderground v.1.15,2013-01-29 12:30:00,
2013-01-29 06:40:00,33.1,31.8,29.66,WNW,288,1.0,2.0,95,0.00,,,0.00,0,Wunderground v.1.15,2013-01-29 12:40:00,
2013-01-29 06:50:00,33.1,31.8,29.66,WNW,301,3.0,3.0,95,0.00,,,0.00,0,Wunderground v.1.15,2013-01-29 12:50:00,
2013-01-29 07:00:00,33.1,31.8,29.67,WNW,302,1.0,4.0,95,0.00,,,0.00,0,Wunderground v.1.15,2013-01-29 13:00:00,
2013-01-29 07:10:00,33.1,31.8,29.68,NW,315,4.0,4.0,95,0.00,,,0.00,0,Wunderground v.1.15,2013-01-29 13:10:00,
2013-01-29 07:20:00,32.9,31.4,29.68,NNW,327,1.0,6.0,94,0.00,,,0.00,0,Wunderground v.1.15,2013-01-29 13:20:00,
2013-01-29 07:30:00,32.9,31.4,29.67,NW,313,1.0,1.0,94,0.00,,,0.00,0,Wunderground v.1.15,2013-01-29 13:30:00,
2013-01-29 07:40:00,32.9,31.4,29.68,NW,304,0.0,0.0,94,0.00,,,0.00,0,Wunderground v.1.15,2013-01-29 13:40:00,
2013-01-29 07:50:00,32.9,31.4,29.68,West,281,0.0,0.0,94,0.00,,,0.00,0,Wunderground v.1.15,2013-01-29 13:50:00,
2013-01-29 08:00:00,32.8,31.3,29.71,WNW,295,0.0,0.0,94,0.00,,,0.00,0,Wunderground v.1.15,2013-01-29 14:00:00,
2013-01-29 08:10:00,32.9,31.1,29.71,WNW,295,0.0,0.0,93,0.00,,,0.00,0,Wunderground v.1.15,2013-01-29 14:10:00,
2013-01-29 08:20:00,32.9,31.1,29.71,WNW,288,0.0,0.0,93,0.00,,,0.00,5,Wunderground v.1.15,2013-01-29 14:20:00,
2013-01-29 08:30:00,32.8,30.7,29.70,NW,320,0.0,0.0,92,0.00,,,0.00,7,Wunderground v.1.15,2013-01-29 14:30:00,
2013-01-29 08:40:00,32.8,30.7,29.68,NW,307,1.0,1.0,92,0.00,,,0.00,12,Wunderground v.1.15,2013-01-29 14:40:00,
2013-01-29 08:50:00,32.9,30.8,29.68,NNW,344,3.0,5.0,92,0.00,,,0.00,18,Wunderground v.1.15,2013-01-29 14:50:00,
2013-01-29 09:00:00,32.8,30.7,29.68,WNW,300,5.0,6.0,92,0.00,,,0.00,21,Wunderground v.1.15,2013-01-29 15:00:00,
2013-01-29 09:10:00,32.8,30.5,29.70,NW,324,4.0,4.0,91,0.00,,,0.00,25,Wunderground v.1.15,2013-01-29 15:10:00,
2013-01-29 09:20:00,32.9,30.3,29.70,NW,311,3.0,3.0,90,0.00,,,0.00,30,Wunderground v.1.15,2013-01-29 15:20:00,
2013-01-29 09:30:00,33.1,30.5,29.71,NNW,333,0.0,0.0,90,0.00,,,0.00,32,Wunderground v.1.15,2013-01-29 15:30:00,
2013-01-29 09:40:00,33.1,30.5,29.71,WNW,299,0.0,0.0,90,0.00,,,0.00,28,Wunderground v.1.15,2013-01-29 15:40:00,
2013-01-29 09:50:00,33.1,30.2,29.71,NNW,344,0.0,0.0,89,0.00,,,0.00,40,Wunderground v.1.15,2013-01-29 15:50:00,
2013-01-29 10:00:00,33.2,30.3,29.70,NNW,344,0.0,0.0,89,0.00,,,0.00,67,Wunderground v.1.15,2013-01-29 16:00:00,
2013-01-29 10:10:00,33.4,30.5,29.69,NNE,19,0.0,0.0,89,0.00,,,0.00,58,Wunderground v.1.15,2013-01-29 16:10:00,
2013-01-29 10:20:00,33.7,30.5,29.69,NNE,17,0.0,0.0,88,0.00,,,0.00,51,Wunderground v.1.15,2013-01-29 16:20:00,
2013-01-29 10:30:00,33.5,30.3,29.69,North,360,0.0,0.0,88,0.00,,,0.00,49,Wunderground v.1.15,2013-01-29 16:30:00,
2013-01-29 10:40:00,33.5,30.0,29.70,North,9,0.0,0.0,87,0.00,,,0.00,53,Wunderground v.1.15,2013-01-29 16:40:00,
2013-01-29 10:50:00,33.7,30.5,29.70,NNE,28,0.0,0.0,88,0.00,,,0.00,74,Wunderground v.1.15,2013-01-29 16:50:00,
2013-01-29 11:00:00,33.7,30.2,29.69,NNW,327,4.0,6.0,87,0.00,,,0.00,90,Wunderground v.1.15,2013-01-29 17:00:00,
2013-01-29 11:10:00,33.8,30.3,29.68,North,10,5.0,5.0,87,0.00,,,0.00,77,Wunderground v.1.15,2013-01-29 17:10:00,
2013-01-29 11:20:00,33.7,30.2,29.68,North,355,6.0,6.0,87,0.00,,,0.00,84,Wunderground v.1.15,2013-01-29 17:20:00,
2013-01-29 11:30:00,33.5,30.0,29.67,North,360,4.0,4.0,87,0.00,,,0.00,44,Wunderground v.1.15,2013-01-29 17:30:00,
2013-01-29 11:40:00,33.5,30.0,29.67,North,355,6.0,6.0,87,0.00,,,0.00,79,Wunderground v.1.15,2013-01-29 17:40:00,
2013-01-29 11:50:00,33.4,29.7,29.67,North,351,8.0,10.0,86,0.00,,,0.00,72,Wunderground v.1.15,2013-01-29 17:50:00,
2013-01-29 12:00:00,33.4,29.7,29.67,North,355,7.0,7.0,86,0.00,,,0.00,86,Wunderground v.1.15,2013-01-29 18:00:00,
2013-01-29 12:10:00,33.5,30.0,29.67,North,5,5.0,10.0,87,0.00,,,0.00,72,Wunderground v.1.15,2013-01-29 18:10:00,
2013-01-29 12:20:00,33.5,29.8,29.67,North,355,5.0,5.0,86,0.00,,,0.00,65,Wunderground v.1.15,2013-01-29 18:20:00,
2013-01-29 12:30:00,33.7,30.0,29.67,NNW,338,5.0,5.0,86,0.00,,,0.00,63,Wunderground v.1.15,2013-01-29 18:30:00,
2013-01-29 12:40:00,33.7,30.0,29.67,North,5,4.0,4.0,86,0.00,,,0.00,58,Wunderground v.1.15,2013-01-29 18:40:00,
2013-01-29 12:50:00,33.7,30.0,29.67,North,355,4.0,9.0,86,0.00,,,0.00,60,Wunderground v.1.15,2013-01-29 18:50:00,
2013-01-29 13:00:00,33.5,29.8,29.65,North,349,5.0,6.0,86,0.00,,,0.00,63,Wunderground v.1.15,2013-01-29 19:00:00,
2013-01-29 13:10:00,33.5,29.8,29.64,NNE,13,5.0,8.0,86,0.00,,,0.00,49,Wunderground v.1.15,2013-01-29 19:10:00,
2013-01-29 13:20:00,33.5,29.8,29.64,North,355,6.0,6.0,86,0.00,,,0.00,51,Wunderground v.1.15,2013-01-29 19:20:00,
2013-01-29 13:30:00,33.4,29.7,29.64,NNW,345,5.0,9.0,86,0.00,,,0.00,74,Wunderground v.1.15,2013-01-29 19:30:00,
2013-01-29 13:40:00,33.1,29.4,29.63,North,355,8.0,8.0,86,0.00,,,0.00,63,Wunderground v.1.15,2013-01-29 19:40:00,
2013-01-29 13:50:00,33.2,29.5,29.63,North,349,6.0,6.0,86,0.00,,,0.00,58,Wunderground v.1.15,2013-01-29 19:50:00,
2013-01-29 14:00:00,33.2,29.5,29.63,NNW,347,7.0,7.0,86,0.00,,,0.00,54,Wunderground v.1.15,2013-01-29 20:00:00,
2013-01-29 14:10:00,33.2,29.5,29.64,North,9,6.0,10.0,86,0.00,,,0.00,53,Wunderground v.1.15,2013-01-29 20:10:00,
2013-01-29 14:20:00,33.2,29.5,29.64,North,5,7.0,7.0,86,0.00,,,0.00,60,Wunderground v.1.15,2013-01-29 20:20:00,
2013-01-29 14:30:00,33.2,29.5,29.63,North,355,4.0,4.0,86,0.00,,,0.00,42,Wunderground v.1.15,2013-01-29 20:30:00,
2013-01-29 14:40:00,33.4,29.7,29.64,NNW,341,6.0,6.0,86,0.00,,,0.00,46,Wunderground v.1.15,2013-01-29 20:40:00,
2013-01-29 14:50:00,33.5,29.8,29.64,North,355,4.0,6.0,86,0.00,,,0.00,42,Wunderground v.1.15,2013-01-29 20:50:00,
2013-01-29 15:00:00,33.7,30.0,29.63,NNE,15,7.0,9.0,86,0.00,,,0.00,35,Wunderground v.1.15,2013-01-29 21:00:00,
2013-01-29 15:10:00,33.8,29.8,29.63,NNE,15,7.0,7.0,85,0.00,,,0.00,37,Wunderground v.1.15,2013-01-29 21:10:00,
2013-01-29 15:20:00,34.0,30.0,29.63,North,5,9.0,10.0,85,0.00,,,0.00,49,Wunderground v.1.15,2013-01-29 21:20:00,
2013-01-29 15:30:00,34.1,30.1,29.63,NNE,12,10.0,14.0,85,0.00,,,0.00,30,Wunderground v.1.15,2013-01-29 21:30:00,
2013-01-29 15:40:00,34.1,29.8,29.63,NNE,19,8.0,8.0,84,0.00,,,0.00,23,Wunderground v.1.15,2013-01-29 21:40:00,
2013-01-29 15:50:00,34.3,30.0,29.63,North,360,9.0,11.0,84,0.00,,,0.00,28,Wunderground v.1.15,2013-01-29 21:50:00,
2013-01-29 16:00:00,34.4,29.8,29.63,North,5,8.0,8.0,83,0.00,,,0.00,21,Wunderground v.1.15,2013-01-29 22:00:00,
2013-01-29 16:10:00,34.4,29.8,29.65,North,5,5.0,6.0,83,0.00,,,0.00,23,Wunderground v.1.15,2013-01-29 22:10:00,
2013-01-29 16:20:00,34.6,29.7,29.65,North,5,7.0,7.0,82,0.00,,,0.00,19,Wunderground v.1.15,2013-01-29 22:20:00,
2013-01-29 16:30:00,34.6,29.7,29.65,North,360,5.0,5.0,82,0.00,,,0.00,14,Wunderground v.1.15,2013-01-29 22:30:00,
2013-01-29 16:40:00,34.6,30.0,29.63,NNE,16,5.0,7.0,83,0.00,,,0.00,12,Wunderground v.1.15,2013-01-29 22:40:00,
2013-01-29 16:50:00,34.4,29.8,29.63,NNE,20,7.0,7.0,83,0.00,,,0.00,9,Wunderground v.1.15,2013-01-29 22:50:00,
2013-01-29 17:00:00,34.6,30.0,29.63,NNE,15,6.0,7.0,83,0.00,,,0.00,5,Wunderground v.1.15,2013-01-29 23:00:00,
2013-01-29 17:10:00,34.6,30.0,29.64,North,5,5.0,7.0,83,0.00,,,0.00,0,Wunderground v.1.15,2013-01-29 23:10:00,
2013-01-29 17:20:00,34.7,30.1,29.64,NNE,28,4.0,9.0,83,0.00,,,0.00,5,Wunderground v.1.15,2013-01-29 23:20:00,
2013-01-29 17:30:00,34.7,30.1,29.64,North,5,4.0,4.0,83,0.00,,,0.00,0,Wunderground v.1.15,2013-01-29 23:30:00,
2013-01-29 17:40:00,34.9,30.3,29.66,North,11,2.0,3.0,83,0.00,,,0.00,0,Wunderground v.1.15,2013-01-29 23:40:00,
2013-01-29 17:50:00,34.9,30.3,29.66,NNE,13,3.0,3.0,83,0.00,,,0.00,0,Wunderground v.1.15,2013-01-29 23:50:00,
2013-01-29 18:00:00,35.0,30.4,29.65,North,5,4.0,6.0,83,0.00,,,0.00,0,Wunderground v.1.15,2013-01-30 00:00:00,
2013-01-29 18:10:00,35.2,30.3,29.66,NNE,27,10.0,12.0,82,0.00,,,0.00,0,Wunderground v.1.15,2013-01-30 00:10:00,
2013-01-29 18:20:00,35.2,30.0,29.66,North,11,13.0,15.0,81,0.00,,,0.00,0,Wunderground v.1.15,2013-01-30 00:20:00,
2013-01-29 18:30:00,35.0,29.8,29.63,NNE,26,10.0,10.0,81,0.00,,,0.00,0,Wunderground v.1.15,2013-01-30 00:30:00,
2013-01-29 18:40:00,35.0,29.8,29.65,NNE,24,9.0,9.0,81,0.00,,,0.00,0,Wunderground v.1.15,2013-01-30 00:40:00,
2013-01-29 18:50:00,35.0,29.8,29.65,NNE,14,8.0,10.0,81,0.00,,,0.00,0,Wunderground v.1.15,2013-01-30 00:50:00,
2013-01-29 19:00:00,34.9,30.0,29.67,North,5,9.0,9.0,82,0.00,,,0.00,0,Wunderground v.1.15,2013-01-30 01:00:00,
2013-01-29 19:10:00,34.9,30.0,29.64,North,11,9.0,9.0,82,0.00,,,0.00,0,Wunderground v.1.15,2013-01-30 01:10:00,
2013-01-29 19:20:00,35.0,30.1,29.64,NNE,16,9.0,9.0,82,0.00,,,0.00,0,Wunderground v.1.15,2013-01-30 01:20:00,
2013-01-29 19:30:00,35.0,29.8,29.65,North,5,7.0,10.0,81,0.00,,,0.00,0,Wunderground v.1.15,2013-01-30 01:30:00,
2013-01-29 19:40:00,35.0,29.8,29.65,North,5,7.0,7.0,81,0.00,,,0.00,0,Wunderground v.1.15,2013-01-30 01:40:00,
2013-01-29 19:50:00,35.2,30.0,29.65,North,360,5.0,5.0,81,0.00,,,0.00,0,Wunderground v.1.15,2013-01-30 01:50:00,
2013-01-29 20:00:00,35.2,29.6,29.67,North,355,2.0,2.0,80,0.00,,,0.00,0,Wunderground v.1.15,2013-01-30 02:00:00,
2013-01-29 20:10:00,35.0,29.8,29.68,North,355,0.0,0.0,81,0.00,,,0.00,0,Wunderground v.1.15,2013-01-30 02:10:00,
2013-01-29 20:20:00,34.9,30.3,29.68,NNW,333,3.0,3.0,83,0.00,,,0.00,0,Wunderground v.1.15,2013-01-30 02:20:00,
2013-01-29 20:30:00,34.7,30.7,29.70,North,355,5.0,9.0,85,0.00,,,0.00,0,Wunderground v.1.15,2013-01-30 02:30:00,
2013-01-29 20:40:00,34.4,30.6,29.69,North,350,4.0,9.0,86,0.00,,,0.00,0,Wunderground v.1.15,2013-01-30 02:40:00,
2013-01-29 20:50:00,34.0,30.8,29.69,North,5,8.0,8.0,88,0.00,,,0.01,0,Wunderground v.1.15,2013-01-30 02:50:00,
2013-01-29 21:00:00,33.7,30.5,29.68,North,9,6.0,6.0,88,0.00,,,0.01,0,Wunderground v.1.15,2013-01-30 03:00:00,
2013-01-29 21:10:00,33.4,30.5,29.65,North,5,7.0,7.0,89,0.00,,,0.01,0,Wunderground v.1.15,2013-01-30 03:10:00,
2013-01-29 21:20:00,33.2,30.6,29.65,North,9,9.0,12.0,90,0.00,,,0.01,0,Wunderground v.1.15,2013-01-30 03:20:00,
2013-01-29 21:30:00,33.2,30.3,29.66,North,360,9.0,9.0,89,0.00,,,0.01,0,Wunderground v.1.15,2013-01-30 03:30:00,
2013-01-29 21:40:00,33.2,30.3,29.65,NNE,16,9.0,9.0,89,0.00,,,0.01,0,Wunderground v.1.15,2013-01-30 03:40:00,
2013-01-29 21:50:00,33.4,29.9,29.65,North,5,13.0,17.0,87,0.00,,,0.01,0,Wunderground v.1.15,2013-01-30 03:50:00,
2013-01-29 22:00:00,33.7,29.7,29.63,NNE,19,11.0,12.0,85,0.00,,,0.01,0,Wunderground v.1.15,2013-01-30 04:00:00,
2013-01-29 22:10:00,33.8,29.5,29.65,North,355,9.0,11.0,84,0.00,,,0.01,0,Wunderground v.1.15,2013-01-30 04:10:00,
2013-01-29 22:20:00,33.8,29.2,29.65,North,5,10.0,10.0,83,0.00,,,0.01,0,Wunderground v.1.15,2013-01-30 04:20:00,
2013-01-29 22:30:00,33.7,29.1,29.66,North,10,9.0,9.0,83,0.00,,,0.01,0,Wunderground v.1.15,2013-01-30 04:30:00,
2013-01-29 22:40:00,33.5,28.9,29.67,North,355,9.0,13.0,83,0.00,,,0.01,0,Wunderground v.1.15,2013-01-30 04:40:00,
2013-01-29 22:50:00,32.9,28.9,29.67,North,355,12.0,12.0,85,0.00,,,0.01,0,Wunderground v.1.15,2013-01-30 04:50:00,
2013-01-29 23:10:00,32.1,28.9,29.65,NNW,344,9.0,9.0,88,0.00,,,0.01,0,Wunderground v.1.15,2013-01-30 05:10:00,
2013-01-29 23:20:00,31.9,29.0,29.65,NNW,332,7.0,7.0,89,0.00,,,0.01,0,Wunderground v.1.15,2013-01-30 05:20:00,
2013-01-29 23:30:00,31.8,29.2,29.66,North,355,6.0,6.0,90,0.00,,,0.01,0,Wunderground v.1.15,2013-01-30 05:30:00,
2013-01-29 23:40:00,31.6,29.0,29.64,NNW,348,8.0,8.0,90,0.00,,,0.01,0,Wunderground v.1.15,2013-01-30 05:40:00,
2013-01-29 23:50:00,31.2,28.9,29.64,NNW,332,7.0,8.0,91,0.00,,,0.01,0,Wunderground v.1.15,2013-01-30 05:50:00,